| time (UTC) | temp F | wind direction | speed MPH | gust MPH | rain 1hr in | rain 24hr in | rain mn in | humidity % | barometer mb |
| 20260831022117 | 74 | 182 | 0.0 | 2.0 | 0.01 | 0.01 | 0.01 | 87 | 1041.4 |
| 20260831022017 | 74 | 202 | 0.0 | 1.0 | 0.01 | 0.01 | 0.01 | 87 | 1041.4 |
| 20260831021015 | 74 | 202 | 0.0 | 0.0 | 0.00 | 0.00 | 0.00 | 86 | 1041.3 |
| 20260831020017 | 74 | 202 | 0.0 | 0.0 | 0.00 | 0.00 | 0.00 | 86 | 1041.1 |
| 20260831015017 | 74 | 202 | 0.0 | 0.0 | 0.00 | 0.00 | 0.00 | 86 | 1041.2 |
| 20260831014016 | 74 | 202 | 0.0 | 0.0 | 0.00 | 0.00 | 0.00 | 86 | 1041.3 |
| 20260831011016 | 74 | 202 | 0.0 | 0.0 | 0.00 | 0.00 | 0.00 | 84 | 1041.1 |
| 20260831010017 | 74 | 202 | 0.0 | 0.0 | 0.00 | 0.00 | 0.00 | 85 | 1041.2 |
| 20260831005916 | 74 | 202 | 0.0 | 0.0 | 0.00 | 0.00 | 0.00 | 85 | 1041.1 |
| 20260831004917 | 74 | 202 | 0.0 | 0.0 | 0.00 | 0.00 | 0.00 | 85 | 1041.1 |
| 20260831004016 | 74 | 202 | 0.0 | 0.0 | 0.00 | 0.00 | 0.00 | 85 | 1041.1 |
| 20260831002018 | 75 | 202 | 0.0 | 0.0 | 0.00 | 0.00 | 0.00 | 83 | 1040.8 |
| 20260831000018 | 75 | 202 | 0.0 | 0.0 | 0.00 | 0.00 | 0.00 | 81 | 1040.5 |
| 20260830235015 | 75 | 202 | 0.0 | 0.0 | 0.00 | 0.00 | 0.00 | 79 | 1040.6 |
| 20260830234916 | 75 | 202 | 0.0 | 0.0 | 0.00 | 0.00 | 0.00 | 79 | 1040.7 |
| 20260830233917 | 76 | 202 | 0.0 | 0.0 | 0.00 | 0.00 | 0.00 | 79 | 1040.7 |
| 20260830232915 | 76 | 202 | 0.0 | 0.0 | 0.00 | 0.00 | 0.00 | 79 | 1040.7 |
| 20260830231917 | 77 | 202 | 0.0 | 0.0 | 0.00 | 0.00 | 0.00 | 78 | 1040.8 |
| 20260830230918 | 77 | 202 | 0.0 | 0.0 | 0.00 | 0.00 | 0.00 | 78 | 1040.9 |
| 20260830230817 | 77 | 202 | 0.0 | 0.0 | 0.00 | 0.00 | 0.00 | 78 | 1040.9 |
| 20260830225818 | 78 | 202 | 0.0 | 0.0 | 0.00 | 0.00 | 0.00 | 75 | 1040.9 |
| 20260830224818 | 78 | 202 | 0.0 | 0.0 | 0.00 | 0.00 | 0.00 | 75 | 1040.6 |
| 20260830223817 | 79 | 202 | 0.0 | 0.0 | 0.00 | 0.00 | 0.00 | 76 | 1040.7 |
| 20260830222915 | 79 | 202 | 0.0 | 0.0 | 0.00 | 0.00 | 0.00 | 76 | 1040.5 |
| 20260830221917 | 79 | 202 | 0.0 | 0.0 | 0.00 | 0.00 | 0.00 | 74 | 1040.6 |
| 20260830220823 | 80 | 202 | 0.0 | 0.0 | 0.00 | 0.00 | 0.00 | 73 | 1040.7 |
| 20260830215817 | 80 | 202 | 0.0 | 0.0 | 0.00 | 0.00 | 0.00 | 74 | 1040.5 |
| 20260830214817 | 80 | 202 | 0.0 | 0.0 | 0.00 | 0.00 | 0.00 | 74 | 1040.4 |
| 20260830214719 | 80 | 202 | 0.0 | 0.0 | 0.00 | 0.00 | 0.00 | 73 | 1040.4 |
| 20260830213816 | 80 | 202 | 0.0 | 0.0 | 0.00 | 0.00 | 0.00 | 72 | 1040.4 |
| 20260830212916 | 80 | 180 | 0.0 | 0.0 | 0.00 | 0.00 | 0.00 | 72 | 1040.4 |
| 20260830210917 | 81 | 180 | 0.0 | 0.0 | 0.00 | 0.00 | 0.00 | 71 | 1040.4 |
| 20260830205919 | 81 | 270 | 0.0 | 0.0 | 0.00 | 0.00 | 0.00 | 71 | 1040.5 |
| 20260830204918 | 81 | 360 | 0.0 | 0.0 | 0.00 | 0.00 | 0.00 | 70 | 1040.6 |
| 20260830203916 | 81 | 360 | 0.0 | 0.0 | 0.00 | 0.00 | 0.00 | 69 | 1040.6 |
| 20260830202916 | 82 | 225 | 0.0 | 0.0 | 0.00 | 0.00 | 0.00 | 66 | 1040.5 |
| 20260830201916 | 82 | 225 | 0.0 | 0.0 | 0.00 | 0.00 | 0.00 | 67 | 1040.5 |
| 20260830201819 | 81 | 225 | 0.0 | 0.0 | 0.00 | 0.00 | 0.00 | 68 | 1040.5 |
| 20260830200916 | 80 | 360 | 0.0 | 0.0 | 0.00 | 0.00 | 0.00 | 69 | 1040.7 |
| 20260830200818 | 80 | 360 | 0.0 | 0.0 | 0.00 | 0.00 | 0.00 | 69 | 1040.7 |
| 20260830195817 | 80 | 217 | 0.0 | 0.0 | 0.00 | 0.00 | 0.00 | 69 | 1041.0 |
| 20260830194817 | 82 | 360 | 0.0 | 0.0 | 0.00 | 0.00 | 0.00 | 67 | 1041.1 |
| 20260830193818 | 83 | 360 | 0.0 | 2.0 | 0.00 | 0.00 | 0.00 | 63 | 1040.9 |
| 20260830192916 | 84 | 360 | 0.0 | 1.0 | 0.00 | 0.00 | 0.00 | 62 | 1041.2 |
| 20260830191016 | 84 | 45 | 0.0 | 0.0 | 0.00 | 0.00 | 0.00 | 63 | 1041.3 |
| 20260830185116 | 84 | 360 | 0.0 | 0.0 | 0.00 | 0.00 | 0.00 | 65 | 1041.6 |
| 20260830183116 | 82 | 360 | 0.0 | 0.0 | 0.00 | 0.00 | 0.00 | 67 | 1041.8 |
| 20260830182116 | 81 | 9 | 0.0 | 2.0 | 0.00 | 0.00 | 0.00 | 69 | 1042.0 |
| 20260830181117 | 80 | 22 | 0.0 | 0.0 | 0.00 | 0.00 | 0.00 | 70 | 1042.1 |
| 20260830175218 | 80 | 119 | 0.0 | 0.0 | 0.00 | 0.00 | 0.00 | 69 | 1042.4 |
| 20260830174216 | 80 | 135 | 0.0 | 0.0 | 0.00 | 0.00 | 0.00 | 69 | 1042.6 |
| 20260830172315 | 79 | 315 | 0.0 | 0.0 | 0.00 | 0.00 | 0.00 | 73 | 1042.7 |
| 20260830170317 | 80 | 315 | 0.0 | 0.0 | 0.00 | 0.00 | 0.00 | 70 | 1043.1 |
| 20260830165416 | 81 | 360 | 0.0 | 0.0 | 0.00 | 0.00 | 0.00 | 69 | 1043.2 |
| 20260830163318 | 77 | 315 | 0.0 | 0.0 | 0.00 | 0.00 | 0.00 | 76 | 1043.1 |
| 20260830163217 | 77 | 315 | 0.0 | 0.0 | 0.00 | 0.00 | 0.00 | 76 | 1043.1 |
| 20260830162216 | 78 | 360 | 0.0 | 0.0 | 0.00 | 0.00 | 0.00 | 74 | 1043.5 |
| 20260830161216 | 78 | 360 | 0.0 | 0.0 | 0.00 | 0.00 | 0.00 | 74 | 1043.5 |
| 20260830161118 | 78 | 360 | 0.0 | 0.0 | 0.00 | 0.00 | 0.00 | 75 | 1043.5 |
| 20260830160118 | 78 | 180 | 0.0 | 0.0 | 0.00 | 0.00 | 0.00 | 74 | 1043.5 |
| 20260830155216 | 78 | 180 | 0.0 | 0.0 | 0.00 | 0.00 | 0.00 | 74 | 1043.5 |
| 20260830153218 | 79 | 45 | 0.0 | 0.0 | 0.00 | 0.00 | 0.00 | 72 | 1043.7 |
| 20260830151216 | 78 | 45 | 0.0 | 1.0 | 0.00 | 0.00 | 0.00 | 73 | 1043.7 |
| 20260830151116 | 78 | 45 | 0.0 | 1.0 | 0.00 | 0.00 | 0.00 | 73 | 1043.7 |
| 20260830150131 | 77 | 193 | 0.0 | 0.0 | 0.00 | 0.00 | 0.00 | 74 | 1043.7 |
| 20260830145217 | 76 | 21 | 0.0 | 0.0 | 0.00 | 0.00 | 0.00 | 78 | 1043.7 |
| 20260830143217 | 72 | 225 | 0.0 | 0.0 | 0.00 | 0.00 | 0.00 | 82 | 1044.0 |
| 20260830142315 | 70 | 360 | 0.0 | 0.0 | 0.00 | 0.00 | 0.00 | 83 | 1044.2 |
| 20260830135416 | 68 | 157 | 0.0 | 0.0 | 0.00 | 0.00 | 0.00 | 88 | 1044.4 |
| 20260830134416 | 67 | 157 | 0.0 | 0.0 | 0.00 | 0.00 | 0.00 | 89 | 1044.6 |
| 20260830133416 | 66 | 157 | 0.0 | 0.0 | 0.00 | 0.00 | 0.00 | 90 | 1044.8 |
| 20260830131418 | 65 | 157 | 0.0 | 0.0 | 0.00 | 0.00 | 0.00 | 91 | 1045.1 |
| 20260830130516 | 64 | 157 | 0.0 | 0.0 | 0.00 | 0.00 | 0.00 | 91 | 1045.2 |
| 20260830125518 | 63 | 157 | 0.0 | 0.0 | 0.00 | 0.00 | 0.00 | 91 | 1045.3 |
| 20260830124535 | 63 | 157 | 0.0 | 0.0 | 0.00 | 0.00 | 0.00 | 92 | 1045.2 |
| 20260830122516 | 61 | 157 | 0.0 | 0.0 | 0.00 | 0.00 | 0.00 | 91 | 1045.2 |
| 20260830121517 | 61 | 157 | 0.0 | 0.0 | 0.00 | 0.00 | 0.00 | 93 | 1045.3 |
| 20260830120615 | 60 | 157 | 0.0 | 0.0 | 0.00 | 0.00 | 0.00 | 93 | 1045.4 |
| 20260830114616 | 60 | 157 | 0.0 | 0.0 | 0.00 | 0.00 | 0.00 | 93 | 1045.3 |
| 20260830113618 | 59 | 157 | 0.0 | 0.0 | 0.00 | 0.00 | 0.00 | 92 | 1045.3 |
| 20260830111615 | 59 | 157 | 0.0 | 0.0 | 0.00 | 0.00 | 0.00 | 92 | 1045.2 |
| 20260830110617 | 58 | 157 | 0.0 | 0.0 | 0.00 | 0.00 | 0.00 | 93 | 1045.4 |
| 20260830105633 | 58 | 157 | 0.0 | 0.0 | 0.00 | 0.00 | 0.00 | 93 | 1045.4 |
| 20260830104720 | 58 | 157 | 0.0 | 0.0 | 0.00 | 0.00 | 0.00 | 92 | 1045.4 |
| 20260830103817 | 58 | 157 | 0.0 | 0.0 | 0.00 | 0.00 | 0.00 | 93 | 1045.2 |
| 20260830102817 | 58 | 157 | 0.0 | 0.0 | 0.00 | 0.00 | 0.00 | 93 | 1045.2 |
| 20260830101916 | 57 | 157 | 0.0 | 0.0 | 0.00 | 0.00 | 0.00 | 93 | 1045.2 |
| 20260830100916 | 57 | 157 | 0.0 | 0.0 | 0.00 | 0.00 | 0.00 | 93 | 1045.3 |
| 20260830093916 | 57 | 157 | 0.0 | 0.0 | 0.00 | 0.00 | 0.00 | 93 | 1045.2 |
| 20260830092918 | 57 | 157 | 0.0 | 0.0 | 0.00 | 0.00 | 0.00 | 93 | 1045.1 |
| 20260830091917 | 57 | 157 | 0.0 | 0.0 | 0.00 | 0.00 | 0.00 | 92 | 1045.2 |
| 20260830090916 | 57 | 157 | 0.0 | 0.0 | 0.00 | 0.00 | 0.00 | 93 | 1045.0 |
| 20260830085918 | 57 | 157 | 0.0 | 0.0 | 0.00 | 0.00 | 0.00 | 93 | 1044.9 |
| 20260830084917 | 57 | 157 | 0.0 | 0.0 | 0.00 | 0.00 | 0.00 | 91 | 1045.2 |
| 20260830083917 | 56 | 157 | 0.0 | 0.0 | 0.00 | 0.00 | 0.00 | 92 | 1045.2 |
| 20260830083015 | 56 | 157 | 0.0 | 0.0 | 0.00 | 0.00 | 0.00 | 92 | 1045.4 |
| 20260830082017 | 57 | 157 | 0.0 | 0.0 | 0.00 | 0.00 | 0.00 | 92 | 1045.4 |
| 20260830081116 | 57 | 157 | 0.0 | 0.0 | 0.00 | 0.00 | 0.00 | 91 | 1045.4 |
| 20260830080118 | 57 | 157 | 0.0 | 0.0 | 0.00 | 0.00 | 0.00 | 90 | 1045.7 |
| 20260830075116 | 57 | 157 | 0.0 | 0.0 | 0.00 | 0.00 | 0.00 | 90 | 1045.7 |
| 20260830074115 | 57 | 157 | 0.0 | 0.0 | 0.00 | 0.00 | 0.00 | 92 | 1045.7 |
| 20260830074016 | 57 | 157 | 0.0 | 0.0 | 0.00 | 0.00 | 0.00 | 92 | 1045.9 |
| 20260830073017 | 57 | 157 | 0.0 | 0.0 | 0.00 | 0.00 | 0.00 | 92 | 1045.8 |
| 20260830072017 | 57 | 157 | 0.0 | 0.0 | 0.00 | 0.00 | 0.00 | 91 | 1045.6 |
| 20260830071916 | 57 | 157 | 0.0 | 0.0 | 0.00 | 0.00 | 0.00 | 91 | 1045.7 |
| 20260830070916 | 57 | 157 | 0.0 | 0.0 | 0.00 | 0.00 | 0.00 | 92 | 1045.4 |
| 20260830065915 | 57 | 157 | 0.0 | 0.0 | 0.00 | 0.00 | 0.00 | 90 | 1045.5 |
| 20260830064917 | 57 | 157 | 0.0 | 0.0 | 0.00 | 0.00 | 0.00 | 89 | 1045.8 |
| 20260830063916 | 57 | 157 | 0.0 | 0.0 | 0.00 | 0.00 | 0.00 | 89 | 1045.8 |
| 20260830061916 | 57 | 157 | 0.0 | 0.0 | 0.00 | 0.00 | 0.00 | 88 | 1045.8 |
| 20260830060932 | 57 | 157 | 0.0 | 0.0 | 0.00 | 0.00 | 0.00 | 89 | 1045.9 |
| 20260830060018 | 57 | 157 | 0.0 | 0.0 | 0.00 | 0.00 | 0.00 | 88 | 1045.9 |
| 20260830055040 | 57 | 157 | 0.0 | 0.0 | 0.00 | 0.00 | 0.00 | 87 | 1045.7 |
| 20260830054016 | 57 | 157 | 0.0 | 0.0 | 0.00 | 0.00 | 0.00 | 88 | 1045.8 |
| 20260830053918 | 57 | 157 | 0.0 | 0.0 | 0.00 | 0.00 | 0.00 | 88 | 1046.0 |
| 20260830053015 | 58 | 157 | 0.0 | 0.0 | 0.00 | 0.00 | 0.00 | 88 | 1045.9 |
| 20260830051016 | 58 | 157 | 0.0 | 0.0 | 0.00 | 0.00 | 0.00 | 86 | 1045.8 |
| 20260830050916 | 58 | 157 | 0.0 | 0.0 | 0.00 | 0.00 | 0.00 | 86 | 1045.8 |
| 20260830045916 | 58 | 157 | 0.0 | 0.0 | 0.00 | 0.00 | 0.00 | 87 | 1045.7 |
| 20260830044816 | 58 | 157 | 0.0 | 0.0 | 0.00 | 0.00 | 0.00 | 87 | 1045.8 |
| 20260830043819 | 58 | 157 | 0.0 | 0.0 | 0.00 | 0.00 | 0.00 | 86 | 1045.7 |
| 20260830042817 | 59 | 157 | 0.0 | 0.0 | 0.00 | 0.00 | 0.00 | 86 | 1045.6 |
| 20260830041915 | 59 | 157 | 0.0 | 0.0 | 0.00 | 0.00 | 0.00 | 85 | 1045.7 |
| 20260830040918 | 59 | 157 | 0.0 | 0.0 | 0.00 | 0.00 | 0.00 | 84 | 1045.5 |
| 20260830035927 | 59 | 157 | 0.0 | 0.0 | 0.00 | 0.00 | 0.00 | 84 | 1045.4 |
| 20260830034928 | 59 | 157 | 0.0 | 0.0 | 0.00 | 0.00 | 0.00 | 79 | 1045.3 |
| 20260830032927 | 60 | 157 | 0.0 | 0.0 | 0.00 | 0.00 | 0.00 | 82 | 1045.4 |
| 20260830031928 | 60 | 157 | 0.0 | 0.0 | 0.00 | 0.00 | 0.00 | 82 | 1045.4 |
| 20260830031027 | 60 | 157 | 0.0 | 0.0 | 0.00 | 0.00 | 0.00 | 82 | 1045.4 |
| 20260830030027 | 60 | 157 | 0.0 | 0.0 | 0.00 | 0.00 | 0.00 | 80 | 1045.4 |
| 20260830025026 | 61 | 157 | 0.0 | 0.0 | 0.00 | 0.00 | 0.00 | 80 | 1045.4 |
| 20260830024028 | 61 | 157 | 0.0 | 0.0 | 0.00 | 0.00 | 0.00 | 79 | 1045.2 |
| 20260830023927 | 61 | 157 | 0.0 | 0.0 | 0.00 | 0.00 | 0.00 | 79 | 1045.2 |
| 20260830022927 | 61 | 157 | 0.0 | 0.0 | 0.00 | 0.00 | 0.00 | 76 | 1045.4 |